Accueil
METAR-TAF:

METAR-TAF

Aéroports :

Colmar, France

Aéroport de Colmar - Houssen

latitude: 48-06-37N, longitude: 7-21-33E, altitude: 191 m

Observation

Le bulletin a été fait il y a 34 minutes, à 12:00 UTC
Vent 12 kt de ouest, variant entre sud-ouest et ouest/nord-ouest
Température 23°C
Humidité 57%
Pression 1011 hPa
Visibilité 10 km ou plus
Nuages fragmentés à une hauteur de 4700 ft
Nuages fragmentés à une hauteur de 7800 ft
Nuages fragmentés à une hauteur de 17000 ft

METAR: LFGA 271200Z AUTO 26012KT 230V290 9999 BKN047 BKN078 BKN170 23/14 Q1011

Heure: 14:34 (12:34 UTC)


TAF: absent

Observations et prévisions météorologiques de plus de 4000 aéroports (messages METAR et TAF).

Les stations disponibles sont représentées par des disques jaunes et rouges sur la carte.

Passer la souris dessus pour voir le nom de la station.

Cliquer dessus pour voir les observations et prévisions météorologiques.

Pour changer de carte: cliquez sur les boutons verts avec une croix noire pour zoomer, sur le bouton vert avec un tiret pour effectuer un zoom arrière, ou sur les flèches vertes pour les cartes adjacentes.


METAR-TAF: